| time (UTC) | temp F | wind direction | speed knots | gust knots | rain 1hr in | rain 24hr in | rain mn in | humidity % | barometer mb |
| 20260502123051 | 35 | 0 | 0.0 | 0.0 | 0.00 | 0.00 | 0.00 | 85 | 1018.0 |
| 20260502121551 | 34 | 0 | 0.0 | 0.0 | 0.00 | 0.00 | 0.00 | 87 | 1017.9 |
| 20260502114557 | 32 | 0 | 0.0 | 0.9 | 0.00 | 0.00 | 0.00 | 89 | 1017.6 |
| 20260502113056 | 30 | 0 | 0.0 | 0.0 | 0.00 | 0.00 | 0.00 | 89 | 1017.5 |
| 20260502111550 | 30 | 0 | 0.0 | 0.0 | 0.00 | 0.00 | 0.00 | 88 | 1017.4 |
| 20260502110057 | 30 | 0 | 0.0 | 0.0 | 0.00 | 0.00 | 0.00 | 88 | 1017.3 |
| 20260502104551 | 29 | 0 | 0.0 | 0.0 | 0.00 | 0.01 | 0.00 | 88 | 1017.2 |
| 20260502103055 | 29 | 0 | 0.0 | 0.0 | 0.00 | 0.01 | 0.00 | 88 | 1017.1 |
| 20260502101552 | 29 | 0 | 0.0 | 0.0 | 0.00 | 0.01 | 0.00 | 88 | 1017.3 |
| 20260502080105 | 31 | 0 | 0.0 | 0.0 | 0.00 | 0.05 | 0.00 | 86 | 1016.8 |
| 20260502070052 | 31 | 0 | 0.0 | 0.0 | 0.00 | 0.05 | 0.00 | 85 | 1017.4 |
| 20260502064600 | 32 | 0 | 0.0 | 0.0 | 0.00 | 0.05 | 0.00 | 85 | 1017.4 |
| 20260502063050 | 32 | 0 | 0.0 | 0.0 | 0.00 | 0.05 | 0.00 | 85 | 1017.5 |
| 20260502061550 | 32 | 0 | 0.0 | 0.0 | 0.00 | 0.05 | 0.00 | 84 | 1017.6 |
| 20260502060056 | 32 | 0 | 0.0 | 0.0 | 0.00 | 0.05 | 0.00 | 84 | 1017.6 |
| 20260502054559 | 33 | 0 | 0.0 | 0.0 | 0.00 | 0.08 | 0.00 | 84 | 1017.7 |
| 20260502053049 | 33 | 0 | 0.0 | 0.0 | 0.00 | 0.08 | 0.00 | 83 | 1017.6 |
| 20260502051558 | 33 | 0 | 0.0 | 0.0 | 0.00 | 0.08 | 0.00 | 83 | 1017.6 |
| 20260502050055 | 33 | 0 | 0.0 | 0.0 | 0.00 | 0.08 | 0.00 | 82 | 1017.7 |
| 20260502044555 | 34 | 0 | 0.0 | 0.0 | 0.00 | 0.08 | 0.08 | 82 | 1017.8 |
| 20260502043054 | 34 | 0 | 0.0 | 0.0 | 0.00 | 0.08 | 0.08 | 81 | 1017.6 |
| 20260502041549 | 34 | 0 | 0.0 | 0.0 | 0.00 | 0.08 | 0.08 | 80 | 1017.5 |
| 20260502040104 | 35 | 0 | 0.0 | 0.0 | 0.00 | 0.08 | 0.08 | 79 | 1017.6 |
| 20260502034556 | 35 | 0 | 0.0 | 0.0 | 0.00 | 0.09 | 0.08 | 77 | 1017.6 |
| 20260502033052 | 36 | 0 | 0.0 | 0.0 | 0.00 | 0.09 | 0.08 | 76 | 1017.4 |
| 20260502031614 | 36 | 0 | 0.0 | 0.0 | 0.00 | 0.09 | 0.08 | 75 | 1017.4 |
| 20260502030052 | 36 | 0 | 0.0 | 0.0 | 0.00 | 0.09 | 0.08 | 73 | 1017.3 |
| 20260502024551 | 37 | 0 | 0.0 | 0.0 | 0.00 | 0.24 | 0.08 | 71 | 1017.2 |
| 20260502023055 | 38 | 0 | 0.0 | 0.0 | 0.00 | 0.24 | 0.08 | 71 | 1017.1 |
| 20260502021550 | 38 | 0 | 0.0 | 0.0 | 0.00 | 0.24 | 0.08 | 70 | 1017.1 |
| 20260502020108 | 39 | 0 | 0.0 | 0.9 | 0.00 | 0.24 | 0.08 | 70 | 1017.0 |
| 20260502014553 | 39 | 0 | 0.0 | 1.7 | 0.00 | 0.30 | 0.08 | 70 | 1016.9 |
| 20260502013052 | 39 | 75 | 0.0 | 1.7 | 0.00 | 0.30 | 0.08 | 68 | 1016.5 |
| 20260502011555 | 40 | 0 | 0.0 | 1.7 | 0.00 | 0.30 | 0.08 | 65 | 1016.3 |
| 20260502010052 | 40 | 0 | 0.0 | 2.6 | 0.00 | 0.30 | 0.08 | 66 | 1016.2 |
| 20260502004557 | 41 | 0 | 0.9 | 1.7 | 0.00 | 0.31 | 0.08 | 66 | 1016.2 |
| 20260502003109 | 41 | 82 | 0.0 | 1.7 | 0.00 | 0.31 | 0.08 | 66 | 1016.1 |
| 20260502001627 | 42 | 65 | 0.0 | 1.7 | 0.00 | 0.31 | 0.08 | 67 | 1015.9 |
| 20260502000116 | 42 | 67 | 0.9 | 2.6 | 0.00 | 0.31 | 0.08 | 66 | 1015.9 |
| 20260501234556 | 43 | 84 | 0.9 | 2.6 | 0.00 | 0.35 | 0.08 | 65 | 1015.8 |
| 20260501233059 | 44 | 73 | 0.9 | 2.6 | 0.00 | 0.35 | 0.08 | 66 | 1015.7 |
| 20260501231600 | 44 | 68 | 0.0 | 2.6 | 0.00 | 0.35 | 0.08 | 66 | 1015.6 |
| 20260501230101 | 44 | 0 | 0.0 | 1.7 | 0.00 | 0.35 | 0.08 | 66 | 1015.7 |
| 20260501224602 | 45 | 80 | 0.9 | 2.6 | 0.00 | 0.38 | 0.08 | 66 | 1015.7 |
| 20260501223101 | 45 | 69 | 0.0 | 1.7 | 0.00 | 0.38 | 0.08 | 67 | 1015.7 |
| 20260501221551 | 45 | 5 | 0.0 | 1.7 | 0.00 | 0.38 | 0.08 | 67 | 1015.6 |
| 20260501220055 | 46 | 0 | 0.0 | 2.6 | 0.00 | 0.38 | 0.08 | 66 | 1015.7 |
| 20260501214552 | 45 | 95 | 0.0 | 2.6 | 0.00 | 0.40 | 0.08 | 66 | 1015.6 |
| 20260501213053 | 46 | 79 | 0.0 | 1.7 | 0.00 | 0.40 | 0.08 | 67 | 1015.6 |
| 20260501211554 | 45 | 38 | 0.0 | 2.6 | 0.00 | 0.40 | 0.08 | 68 | 1015.6 |
| 20260501210058 | 45 | 0 | 0.0 | 1.7 | 0.00 | 0.40 | 0.08 | 66 | 1015.5 |
| 20260501204548 | 46 | 0 | 0.9 | 1.7 | 0.00 | 0.40 | 0.08 | 66 | 1015.5 |
| 20260501203051 | 45 | 64 | 0.9 | 2.6 | 0.00 | 0.40 | 0.08 | 66 | 1015.6 |
| 20260501201553 | 45 | 82 | 0.9 | 2.6 | 0.00 | 0.40 | 0.08 | 66 | 1015.5 |
| 20260501200051 | 45 | 61 | 0.0 | 1.7 | 0.00 | 0.40 | 0.08 | 67 | 1015.6 |
| 20260501194557 | 45 | 89 | 0.0 | 3.5 | 0.00 | 0.40 | 0.08 | 67 | 1015.6 |
| 20260501193051 | 45 | 0 | 0.0 | 1.7 | 0.00 | 0.40 | 0.08 | 68 | 1015.4 |
| 20260501191554 | 45 | 58 | 0.0 | 1.7 | 0.00 | 0.40 | 0.08 | 68 | 1015.4 |
| 20260501190058 | 46 | 84 | 0.9 | 2.6 | 0.00 | 0.40 | 0.08 | 66 | 1015.1 |
| 20260501184553 | 47 | 102 | 0.9 | 3.5 | 0.00 | 0.40 | 0.08 | 65 | 1015.0 |
| 20260501183054 | 47 | 78 | 0.9 | 2.6 | 0.00 | 0.40 | 0.08 | 66 | 1014.9 |
| 20260501181551 | 48 | 84 | 0.9 | 2.6 | 0.00 | 0.40 | 0.08 | 65 | 1014.6 |
| 20260501180101 | 49 | 292 | 0.0 | 1.7 | 0.00 | 0.40 | 0.08 | 54 | 1014.6 |
| 20260501174552 | 48 | 290 | 0.9 | 3.5 | 0.00 | 0.40 | 0.08 | 51 | 1014.6 |
| 20260501173101 | 48 | 0 | 0.9 | 4.3 | 0.00 | 0.40 | 0.08 | 51 | 1014.4 |
| 20260501171552 | 49 | 310 | 0.0 | 3.5 | 0.00 | 0.40 | 0.08 | 53 | 1014.3 |
| 20260501170054 | 49 | 18 | 0.0 | 2.6 | 0.00 | 0.40 | 0.08 | 51 | 1014.2 |
| 20260501164558 | 50 | 325 | 0.9 | 3.5 | 0.00 | 0.40 | 0.08 | 52 | 1014.1 |
| 20260501163051 | 49 | 17 | 0.0 | 2.6 | 0.00 | 0.40 | 0.08 | 52 | 1014.1 |
| 20260501161607 | 48 | 288 | 0.9 | 4.3 | 0.00 | 0.40 | 0.08 | 56 | 1014.2 |
| 20260501160058 | 48 | 68 | 1.7 | 5.2 | 0.00 | 0.40 | 0.08 | 57 | 1014.3 |
| 20260501154603 | 47 | 6 | 0.0 | 5.2 | 0.00 | 0.40 | 0.08 | 58 | 1014.4 |
| 20260501153106 | 46 | 277 | 0.0 | 7.8 | 0.00 | 0.40 | 0.08 | 61 | 1014.3 |
| 20260501151557 | 47 | 46 | 0.9 | 6.1 | 0.00 | 0.40 | 0.08 | 63 | 1014.3 |
| 20260501150053 | 46 | 298 | 1.7 | 7.8 | 0.00 | 0.40 | 0.08 | 69 | 1014.3 |
| 20260501144556 | 45 | 297 | 0.0 | 4.3 | 0.00 | 0.40 | 0.08 | 74 | 1014.3 |